EN

Hourly Weather Panistruga

Today, 5 March, Friday

Time Temperature Precipitation Wind Pressure Humidity
00:00 -3°C° 0 mm 2 mps 748 mmHg 81%
01:00 -3°C° 0 mm 2 mps 748 mmHg 80%
02:00 -4°C° 0 mm 2 mps 748 mmHg 78%
03:00 -4°C° 0 mm 2 mps 748 mmHg 77%
04:00 -4°C° 0 mm 2 mps 749 mmHg 75%
05:00 -4°C° 0 mm 2 mps 749 mmHg 74%
06:00 -4°C° 0 mm 2 mps 749 mmHg 73%
07:00 -3°C° 0 mm 2 mps 750 mmHg 72%
08:00 -2°C° 0 mm 3 mps 750 mmHg 68%
09:00 -1°C° 0 mm 3 mps 750 mmHg 65%
10:00 -1°C° 0 mm 3 mps 751 mmHg 61%
11:00 0°C° 0 mm 3 mps 751 mmHg 52%
12:00 0°C° 0 mm 3 mps 751 mmHg 44%
13:00 +1°C° 0 mm 3 mps 751 mmHg 34%
14:00 +1°C° 0 mm 3 mps 751 mmHg 36%
15:00 0°C° 0 mm 3 mps 752 mmHg 38%
16:00 +1°C° 0 mm 2 mps 752 mmHg 40%
17:00 -1°C° 0 mm 2 mps 752 mmHg 49%
18:00 -2°C° 0 mm 2 mps 752 mmHg 58%
19:00 -3°C° 0 mm 2 mps 753 mmHg 67%
20:00 -4°C° 0 mm 3 mps 753 mmHg 70%
21:00 -4°C° 0 mm 3 mps 753 mmHg 72%
22:00 -4°C° 0 mm 4 mps 754 mmHg 74%
23:00 -4°C° 0 mm 4 mps 754 mmHg 76%

Tomorrow, 6 March, Saturday

Time Temperature Precipitation Wind Pressure Humidity
00:00 -4°C° 0 mm 3 mps 755 mmHg 77%
01:00 -5°C° 0 mm 3 mps 755 mmHg 78%
02:00 -5°C° 0 mm 3 mps 755 mmHg 77%
03:00 -5°C° 0 mm 3 mps 755 mmHg 76%
04:00 -5°C° 0 mm 3 mps 755 mmHg 75%
05:00 -5°C° 0 mm 3 mps 756 mmHg 74%
06:00 -5°C° 0 mm 3 mps 756 mmHg 73%
07:00 -4°C° 0 mm 2 mps 756 mmHg 72%
08:00 -3°C° 0 mm 2 mps 756 mmHg 65%
09:00 -2°C° 0 mm 3 mps 757 mmHg 58%
10:00 -1°C° 0 mm 3 mps 757 mmHg 51%
11:00 -1°C° 0 mm 4 mps 756 mmHg 49%
12:00 0°C° 0 mm 4 mps 756 mmHg 48%
13:00 0°C° 0 mm 4 mps 756 mmHg 46%
14:00 0°C° 0 mm 4 mps 755 mmHg 48%
15:00 0°C° 0 mm 5 mps 754 mmHg 50%
16:00 0°C° 0 mm 5 mps 754 mmHg 52%
17:00 -1°C° 0 mm 5 mps 753 mmHg 56%
18:00 -1°C° 0 mm 5 mps 752 mmHg 59%
19:00 -2°C° 0 mm 5 mps 752 mmHg 62%
20:00 -3°C° 0 mm 6 mps 751 mmHg 69%
21:00 -3°C° 0 mm 7 mps 750 mmHg 77%
22:00 -3°C° 0 mm 7 mps 750 mmHg 84%
23:00 -4°C° 0.1 mm 8 mps 749 mmHg 87%

Day after tomorrow, 7 March, Sunday

Time Temperature Precipitation Wind Pressure Humidity
00:00 -4°C° 0.1 mm 8 mps 748 mmHg 90%
01:00 -4°C° 0.1 mm 9 mps 747 mmHg 93%
02:00 -4°C° 0.2 mm 9 mps 747 mmHg 94%
03:00 -4°C° 0.2 mm 9 mps 746 mmHg 95%
04:00 -3°C° 0.2 mm 9 mps 745 mmHg 96%
05:00 -4°C° 0.7 mm 8 mps 745 mmHg 95%
06:00 -4°C° 0.7 mm 7 mps 745 mmHg 94%
07:00 -4°C° 0.7 mm 6 mps 746 mmHg 93%
08:00 -4°C° 0.3 mm 5 mps 746 mmHg 90%
09:00 -4°C° 0.3 mm 5 mps 746 mmHg 87%
10:00 -2°C° 0.3 mm 4 mps 746 mmHg 84%
11:00 -2°C° 0.2 mm 5 mps 745 mmHg 84%
12:00 -3°C° 0.2 mm 6 mps 745 mmHg 85%
13:00 -2°C° 0.2 mm 6 mps 745 mmHg 85%
14:00 -2°C° 0.1 mm 6 mps 745 mmHg 78%
15:00 -2°C° 0.1 mm 6 mps 745 mmHg 70%
16:00 -2°C° 0.1 mm 6 mps 745 mmHg 62%
17:00 -2°C° 0 mm 5 mps 745 mmHg 64%
18:00 -4°C° 0 mm 5 mps 745 mmHg 66%
19:00 -4°C° 0 mm 4 mps 746 mmHg 68%
20:00 -5°C° 0 mm 4 mps 746 mmHg 70%
21:00 -5°C° 0 mm 4 mps 746 mmHg 73%
22:00 -5°C° 0 mm 3 mps 746 mmHg 75%
23:00 -5°C° 0 mm 3 mps 746 mmHg 75%

8 March, Monday

Time Temperature Precipitation Wind Pressure Humidity
00:00 -5°C° 0 mm 3 mps 747 mmHg 76%
01:00 -5°C° 0 mm 4 mps 747 mmHg 76%
02:00 -5°C° 0 mm 4 mps 747 mmHg 77%
03:00 -5°C° 0 mm 4 mps 747 mmHg 78%
04:00 -5°C° 0 mm 4 mps 747 mmHg 79%
05:00 -5°C° 0 mm 4 mps 747 mmHg 78%
06:00 -4°C° 0 mm 4 mps 747 mmHg 78%
07:00 -4°C° 0 mm 4 mps 748 mmHg 77%
08:00 -5°C° 0.1 mm 5 mps 748 mmHg 75%
09:00 -4°C° 0.1 mm 5 mps 748 mmHg 73%
10:00 -4°C° 0.1 mm 5 mps 749 mmHg 71%
11:00 -4°C° 0.1 mm 5 mps 749 mmHg 67%
12:00 -2°C° 0.1 mm 5 mps 749 mmHg 63%
13:00 -2°C° 0.1 mm 5 mps 750 mmHg 59%
14:00 -2°C° 0 mm 5 mps 750 mmHg 61%
15:00 -4°C° 0 mm 5 mps 750 mmHg 62%
16:00 -4°C° 0 mm 5 mps 750 mmHg 64%
17:00 -5°C° 0 mm 5 mps 751 mmHg 67%
18:00 -5°C° 0 mm 4 mps 751 mmHg 71%
19:00 -5°C° 0 mm 3 mps 752 mmHg 74%
20:00 -6°C° 0 mm 3 mps 752 mmHg 74%
21:00 -5°C° 0 mm 2 mps 753 mmHg 74%
22:00 -5°C° 0 mm 2 mps 753 mmHg 75%
23:00 -5°C° 0 mm 2 mps 754 mmHg 74%

9 March, Tuesday

Time Temperature Precipitation Wind Pressure Humidity
00:00 -4°C° 0 mm 1 mps 754 mmHg 73%
01:00 -4°C° 0 mm 1 mps 754 mmHg 72%
02:00 -4°C° 0 mm 1 mps 754 mmHg 72%
03:00 -4°C° 0 mm 1 mps 754 mmHg 71%
04:00 -4°C° 0 mm 1 mps 754 mmHg 71%
05:00 -4°C° 0 mm 1 mps 755 mmHg 70%
06:00 -4°C° 0 mm 1 mps 755 mmHg 68%
07:00 -4°C° 0 mm 1 mps 755 mmHg 67%
08:00 -5°C° 0 mm 2 mps 755 mmHg 61%
09:00 -4°C° 0 mm 2 mps 755 mmHg 55%
10:00 -4°C° 0 mm 2 mps 755 mmHg 50%
11:00 -4°C° 0 mm 3 mps 755 mmHg 47%
12:00 -2°C° 0 mm 3 mps 755 mmHg 45%
13:00 -1°C° 0 mm 3 mps 755 mmHg 43%
14:00 -1°C° 0 mm 3 mps 754 mmHg 45%
15:00 -1°C° 0 mm 3 mps 754 mmHg 46%
16:00 -1°C° 0 mm 3 mps 753 mmHg 48%
17:00 -2°C° 0 mm 3 mps 753 mmHg 53%
18:00 -4°C° 0 mm 3 mps 753 mmHg 59%
19:00 -5°C° 0 mm 3 mps 753 mmHg 64%
20:00 -5°C° 0 mm 3 mps 753 mmHg 63%
21:00 -4°C° 0 mm 3 mps 753 mmHg 63%
22:00 -4°C° 0 mm 3 mps 752 mmHg 62%
23:00 -4°C° 0 mm 4 mps 752 mmHg 63%

10 March, Wednesday

Time Temperature Precipitation Wind Pressure Humidity
00:00 -4°C° 0 mm 4 mps 752 mmHg 64%
01:00 -4°C° 0 mm 4 mps 751 mmHg 64%
02:00 -4°C° 0 mm 4 mps 751 mmHg 65%
03:00 -4°C° 0 mm 4 mps 750 mmHg 67%
04:00 -4°C° 0 mm 4 mps 750 mmHg 68%
05:00 -4°C° 0 mm 4 mps 749 mmHg 74%
06:00 -4°C° 0 mm 4 mps 749 mmHg 81%
07:00 -4°C° 0 mm 4 mps 749 mmHg 87%
08:00 -3°C° 0.1 mm 4 mps 748 mmHg 89%
09:00 -2°C° 0.1 mm 4 mps 748 mmHg 90%
10:00 -1°C° 0.1 mm 4 mps 748 mmHg 92%
11:00 -1°C° 0 mm 4 mps 748 mmHg 93%
12:00 -1°C° 0 mm 4 mps 747 mmHg 93%
13:00 0°C° 0 mm 4 mps 747 mmHg 94%
14:00 0°C° 0 mm 4 mps 746 mmHg 95%
15:00 0°C° 0 mm 5 mps 746 mmHg 95%
16:00 0°C° 0 mm 5 mps 745 mmHg 96%
17:00 0°C° 0 mm 5 mps 745 mmHg 95%
18:00 0°C° 0 mm 5 mps 744 mmHg 94%
19:00 0°C° 0 mm 5 mps 743 mmHg 93%
20:00 0°C° 0 mm 5 mps 743 mmHg 89%
21:00 -1°C° 0 mm 6 mps 742 mmHg 85%
22:00 -1°C° 0 mm 6 mps 741 mmHg 82%
23:00 -1°C° 0.3 mm 6 mps 740 mmHg 87%
Show more

We Need Your Consent

Meteoprog and our Service Providers may store and access personal data such as cookies, device identifiers or other similar technologies on your device and process such data to personalise content and ads, as well as provide social media features and to analyse the traffic.

  • Store and/or access information on your device

    Cookies, device identifiers or other information can be stored or accessed on your device for the purposes indicated above.

  • Personalised ads and content, ad and content measurement, audience insights, and products development

    Ads and content can be personalised based on a profile. More data can be added to better personalise ads and content. Ad and content performance can be measured. Insights about the audience who saw the ads and content can be derived. Such data can be used to develop or improve user’s experience, systems and software.

By clicking ‘I Agree’ you will allow the use of indicated cookies, device identifiers, web beacons or other similar technologies. Your settings can be changed in the browser on your device.

For certain purposes, legitimate interests may be relied on, rather than consent. You can read more about this in our Privacy and Cookie Policy.